LEMUR-1

Last updated on Wed Feb 14 2018 16:18:52 GMT+0000 (Coordinated Universal Time)

1 40044U 14033AL 18045.52451427 .00000128 00000-0 26687-4 0 9995 2 40044 97.8267 286.8597 0058075 234.7358 124.8409 14.73923215196512
UTC large
Height (km)
Speed (km/s)
/
Latitude / Longitude
Inclination (degrees)
Orbital Period (minutes)
Azimuth
Elevation
Range (km)
Doppler Factor

Next 0 passes for location: London (51.5072 / 0.1276)

Sorry there are no passes over London.